[Date Prev][Date Next][Thread Prev][Thread Next] - [Date Index][Thread Index][Author Index]

2 Line ISS Keps 3-21



ISS
1 25544U 98067A   05080.00311343  .00023694  00000-0  18778-3 0   560
2 25544 051.6473 352.0775 0003719 209.0351 326.6174 15.71176236361814
----
Via the sarex mailing list at AMSAT.ORG courtesy of AMSAT-NA.
To unsubscribe, send "unsubscribe sarex" to Majordomo@amsat.org



AMSAT Top AMSAT Home